Location: Huesca
(42.1318°N, 0.4078°W)
Time: 00:27:09
(UTC+02:00)

CUTE 1.7 + AOD 2 - Pass Details

Date: 24 April 2024
Orbit: 569 x 586 km, 97.8° (Epoch: 26 May)

Event Time Altitude Azimuth Distance (km) Brightness Sun altitude
Rises 05:27:20 0° 14° (NNE) 2,786 ? -17.2°
Reaches altitude 10° 05:29:30 10° 17° (NNE) 1,882 ? -16.8°
Maximum altitude 05:33:34 70° 102° (ESE) 610 ? -16.2°
Enters shadow 05:36:48 15° 184° (S) 1,544 ? -15.7°
